User: anonymous   Login
Location: Demmingen
(48.6757°N, 10.4375°E)
Time: 19:53:46
(UTC+00:00)
Language:

Cosmos 724 - Orbit

View from above orbital plane
View from above orbital plane
View from above satellite
View from above satellite

Ground track
Ground track

The orbit data is extracted from the following two-line orbital elements,

1 07727U 75025A   24199.39998728 -.00000028  00000-0  40806-4 0  9995
2 07727  65.5901  75.7377 0045535  79.3876 281.2321 13.99031175517796
Epoch (UTC): 17 July 2024 09:35:58
Eccentricity: 0.0045535
inclination: 65.5901°
perigee height: 864 km
apogee height: 930 km
right ascension of ascending node: 75.7377°
argument of perigee: 79.3876°
revolutions per day: 13.99031175
mean anomaly at epoch: 281.2321°
orbit number at epoch: 51779

The dashed part of the orbit path shows where the satellite is in the earth's shadow,  

DLR